UAL1468 KBOS-KDCA

Flight info

Callsign UAL1468
Flight time N/A
Altitude 24000
Route CYN123032 BILIT DEALE3 KDCA
Aircraft A320/M-SDE3FGHIRWY/LB1

Departure

Time N/A
Airport Boston Logan International Airport (KBOS)

Arrival

Time 2026-05-06 02:01
Airport Ronald Reagan Washington National Airport (KDCA)
Time Latitude Longitude Altitude Speed Heading
2026-05-06 01:52 38.87622 -76.89410 6063 ft 269 kts 302°
2026-05-06 01:52 38.88934 -76.91154 6004 ft 273 kts 308°
2026-05-06 01:52 38.90291 -76.92881 5889 ft 276 kts 308°
2026-05-06 01:53 38.91650 -76.94621 5497 ft 276 kts 308°
2026-05-06 01:53 38.93008 -76.96360 5130 ft 276 kts 308°
2026-05-06 01:53 38.94366 -76.98098 4790 ft 274 kts 307°
2026-05-06 01:53 38.95711 -76.99818 4525 ft 271 kts 307°
2026-05-06 01:54 38.97038 -77.01517 4270 ft 268 kts 307°
2026-05-06 01:54 38.98348 -77.03193 4095 ft 262 kts 307°
2026-05-06 01:54 38.99615 -77.04811 4020 ft 251 kts 307°
2026-05-06 01:54 39.00820 -77.06342 4021 ft 236 kts 306°
2026-05-06 01:55 39.01955 -77.07789 4023 ft 226 kts 306°
2026-05-06 01:55 39.02834 -77.09371 4026 ft 210 kts 279°
2026-05-06 01:55 39.02869 -77.11138 4025 ft 194 kts 245°
2026-05-06 01:55 39.02207 -77.12613 3982 ft 190 kts 231°
2026-05-06 01:56 39.01405 -77.13955 3709 ft 188 kts 230°
2026-05-06 01:56 39.00586 -77.15273 3405 ft 188 kts 229°
2026-05-06 01:56 38.99742 -77.16553 3081 ft 187 kts 219°
2026-05-06 01:56 38.98567 -77.17114 2930 ft 182 kts 184°
2026-05-06 01:57 38.97372 -77.16560 2810 ft 195 kts 149°
2026-05-06 01:57 38.96503 -77.15152 2657 ft 196 kts 134°
2026-05-06 01:57 38.95702 -77.13793 2634 ft 190 kts 143°
2026-05-06 01:57 38.94747 -77.12690 2386 ft 182 kts 152°
2026-05-06 01:58 38.93733 -77.11738 2126 ft 178 kts 156°
2026-05-06 01:58 38.92698 -77.10936 1935 ft 171 kts 160°
2026-05-06 01:58 38.91720 -77.10168 1676 ft 159 kts 156°
2026-05-06 01:58 38.90974 -77.09137 1433 ft 162 kts 125°
2026-05-06 01:59 38.90573 -77.07799 1228 ft 156 kts 122°
2026-05-06 01:59 38.90073 -77.06629 1000 ft 145 kts 136°
2026-05-06 01:59 38.89402 -77.05685 771 ft 145 kts 139°
2026-05-06 01:59 38.88683 -77.04802 645 ft 143 kts 142°
2026-05-06 02:00 38.87848 -77.04146 438 ft 139 kts 165°
2026-05-06 02:00 38.86907 -77.03938 241 ft 134 kts 177°
2026-05-06 02:00 38.85962 -77.03856 37 ft 136 kts 178°
2026-05-06 02:00 38.85199 -77.03782 20 ft 76 kts 175°
2026-05-06 02:01 38.84750 -77.03736 20 ft 55 kts 175°
2026-05-06 02:01 38.84451 -77.03707 20 ft 23 kts 183°
2026-05-06 02:01 38.84405 -77.03831 25 ft 11 kts 317°
2026-05-06 02:01 38.84405 -77.03862 23 ft 3 kts 249°
2026-05-06 02:02 38.84398 -77.03883 24 ft 0 kts 249°
2026-05-06 02:04 38.84397 -77.03887 24 ft 3 kts 249°
2026-05-06 02:04 38.84384 -77.03948 24 ft 9 kts 260°
2026-05-06 02:05 38.84378 -77.04044 24 ft 12 kts 269°
2026-05-06 02:05 38.84425 -77.04121 27 ft 13 kts 351°
2026-05-06 02:05 38.84519 -77.04133 27 ft 14 kts 12°
2026-05-06 02:05 38.84591 -77.04046 24 ft 16 kts 27°
2026-05-06 02:06 38.84707 -77.03993 21 ft 19 kts 24°
2026-05-06 02:06 38.84839 -77.03939 19 ft 21 kts 358°
2026-05-06 02:06 38.84997 -77.03964 18 ft 24 kts 356°
2026-05-06 02:06 38.85130 -77.03972 18 ft 0 kts 358°
2026-05-06 02:07 38.85134 -77.03972 18 ft 2 kts 357°
2026-05-06 02:07 38.85166 -77.03982 20 ft 7 kts 347°
2026-05-06 02:07 38.85198 -77.04027 19 ft 8 kts 291°
2026-05-06 02:07 38.85209 -77.04063 20 ft 0 kts 292°